Weather History for Shymkent, Kazakhstan

Change the Weather History Date:

Saturday, February 16, 2013

  Actual Average Record
Temperature  
Mean Temperature 38 °F -  
Max Temperature 49 °F - - ()
Min Temperature 27 °F - - ()
Degree Days  
Heating Degree Days 27    
Moisture  
Dew Point 15 °F    
Average Humidity 42    
Maximum Humidity 69    
Minimum Humidity 19    
Precipitation  
Precipitation 0.00 in - - ()
Sea Level Pressure  
Sea Level Pressure 30.19 in    
Wind  
Wind Speed 10 mph ()    
Max Wind Speed 16 mph    
Max Gust Speed 27 mph    
Visibility 12.0 miles    
Events      
T = Trace of Precipitation, MM = Missing Value Source: Averaged Metar Reports

Daily Weather History Graph

Daily Weather History Graph

Search for Another Location

Airport:

Trip Planner

Search our weather history database for the weather conditions in past years. The results will help you decide how hot, cold, wet, or windy it might be!

Date:

Astronomy

Feb. 16, 2013 Rise Set
Actual Time 8:17 AM ALMT 6:55 PM ALMT
Civil Twilight 7:48 AM ALMT 7:24 PM ALMT
Nautical Twilight 7:15 AM ALMT 7:57 PM ALMT
Astronomical Twilight 6:43 AM ALMT 8:29 PM ALMT
Moon 11:05 AM ALMT (2/16) 12:37 AM ALMT (2/16)
Length of Visible Light 11h 35m
Length of Day
10h 38m
Waxing Crescent, 35% of the Moon is Illuminated
Feb 16
Waxing Crescent
Feb 18
First Quarter
Feb 26
Full
Mar 5
Last Quarter
Mar 12
New

Hourly Weather History & Observations

Time (ALMT) Temp. Windchill Dew Point Humidity Pressure Visibility Wind Dir Wind Speed Gust Speed Precip Events Conditions
12:00 AM 29 °F - 15 °F 44% 30.36 in - ESE 6.7 mph - -  
12:00 AM 33.8 °F 23.7 °F 14.0 °F 44% 30.27 in - ENE 15.7 mph - N/A   Clear
12:30 AM 33.8 °F 23.7 °F 12.2 °F 41% 30.27 in - ENE 15.7 mph - N/A   Clear
1:00 AM 32.0 °F 21.4 °F 14.0 °F 48% 30.24 in - ENE 15.7 mph - N/A   Clear
1:30 AM 32.0 °F 21.4 °F 15.8 °F 51% 30.24 in - ENE 15.7 mph - N/A   Clear
2:00 AM 32.0 °F 21.4 °F 15.8 °F 51% 30.24 in - ENE 15.7 mph - N/A   Clear
2:30 AM 28.4 °F 16.7 °F 15.8 °F 59% 30.24 in - ENE 15.7 mph - N/A   Clear
3:00 AM 29 °F - 20 °F 58% 30.31 in - SE 4.5 mph - -  
3:00 AM 30.2 °F 23.5 °F 17.6 °F 60% 30.24 in - ESE 6.7 mph - N/A   Clear
3:30 AM 26.6 °F 19.2 °F 17.6 °F 69% 30.24 in - ESE 6.7 mph - N/A   Clear
4:00 AM 30.2 °F 23.5 °F 17.6 °F 60% 30.24 in - ESE 6.7 mph - N/A   Clear
4:30 AM 32.0 °F 25.7 °F 15.8 °F 51% 30.24 in - ESE 6.7 mph - N/A   Clear
5:00 AM 32.0 °F 24.3 °F 17.6 °F 55% 30.21 in - ESE 8.9 mph - N/A   Clear
5:30 AM 32.0 °F 24.3 °F 17.6 °F 55% 30.21 in - East 8.9 mph - N/A   Clear
6:00 AM 28 °F - 20 °F 61% 30.31 in - East 4.5 mph - -  
6:00 AM 32.0 °F 24.3 °F 17.6 °F 55% 30.21 in - East 8.9 mph - N/A   Clear
6:30 AM 32.0 °F 24.3 °F 17.6 °F 55% 30.24 in - East 8.9 mph - N/A   Clear
7:00 AM 32.0 °F 24.3 °F 17.6 °F 55% 30.24 in - East 8.9 mph - N/A   Clear
7:30 AM 32.0 °F 25.7 °F 17.6 °F 55% 30.24 in - East 6.7 mph - N/A   Clear
8:00 AM 32.0 °F 25.7 °F 17.6 °F 55% 30.24 in - East 6.7 mph - N/A   Clear
8:30 AM 32.0 °F 25.7 °F 17.6 °F 55% 30.24 in - East 6.7 mph - N/A   Clear
9:00 AM 29 °F - 18 °F 51% 30.32 in 31 mi East 6.7 mph - -  
9:00 AM 32.0 °F 24.3 °F 17.6 °F 55% 30.24 in - East 8.9 mph - N/A   Clear
9:30 AM 33.8 °F 25.4 °F 17.6 °F 52% 30.24 in - East 11.2 mph - N/A   Clear
10:00 AM 35.6 °F 26.8 °F 15.8 °F 44% 30.24 in - East 13.4 mph - N/A   Clear
10:30 AM 37.4 °F 29.1 °F 14.0 °F 38% 30.24 in - East 13.4 mph - N/A   Clear
11:00 AM 41.0 °F 33.6 °F 15.8 °F 36% 30.24 in - East 13.4 mph - N/A   Clear
11:30 AM 42.8 °F 35.9 °F 14.0 °F 31% 30.24 in - East 13.4 mph - N/A   Clear
12:00 PM 42 °F - 24 °F 36% 30.25 in 12 mi East 4.5 mph - -  
12:00 PM 46.4 °F 40.5 °F 14.0 °F 27% 30.21 in - East 13.4 mph - N/A   Clear
12:30 PM 46.4 °F 41.2 °F 14.0 °F 27% 30.21 in - East 11.2 mph - N/A   Clear
1:00 PM 48.2 °F - 12.2 °F 24% 30.21 in - East 11.2 mph - N/A   Clear
1:30 PM 50.0 °F - 17.6 °F 28% 30.18 in - East 11.2 mph - N/A   Clear
2:00 PM 50.0 °F - 14.0 °F 24% 30.18 in - East 11.2 mph - N/A   Clear
2:30 PM 50.0 °F - 12.2 °F 22% 30.15 in - ENE 13.4 mph - N/A   Clear
3:00 PM 49 °F - 20 °F 19% 30.17 in 31 mi ESE 2.2 mph - -  
3:00 PM 50.0 °F - 12.2 °F 22% 30.15 in - ENE 13.4 mph - N/A   Clear
3:30 PM 50.0 °F - 10.4 °F 20% 30.15 in - ENE 13.4 mph - N/A   Clear
4:00 PM 48.2 °F - 12.2 °F 24% 30.15 in - ENE 6.7 mph 17.9 mph N/A   Clear
4:30 PM 48.2 °F - 12.2 °F 24% 30.12 in - ENE 6.7 mph 17.9 mph N/A   Clear
5:00 PM 48.2 °F - 10.4 °F 22% 30.12 in - ENE 6.7 mph 17.9 mph N/A   Clear
5:30 PM 44.6 °F 38.2 °F 10.4 °F 25% 30.12 in - ENE 13.4 mph 24.6 mph N/A   Clear
6:00 PM 45 °F - 17 °F 19% 30.14 in 31 mi East 6.7 mph - -  
6:00 PM 42.8 °F 35.9 °F 12.2 °F 29% 30.12 in - ENE 13.4 mph 24.6 mph N/A   Clear
6:30 PM 39.2 °F 30.6 °F 14.0 °F 36% 30.12 in - ENE 15.7 mph 26.8 mph N/A   Clear
7:00 PM 37.4 °F 29.1 °F 14.0 °F 38% 30.09 in - ENE 13.4 mph 24.6 mph N/A   Clear
7:30 PM 35.6 °F 26.0 °F 14.0 °F 41% 30.09 in - ENE 15.7 mph 26.8 mph N/A   Clear
8:00 PM 35.6 °F 26.0 °F 14.0 °F 41% 30.09 in - East 15.7 mph 26.8 mph N/A   Clear
8:30 PM 33.8 °F 23.7 °F 14.0 °F 44% 30.09 in - East 15.7 mph 26.8 mph N/A   Clear
9:00 PM 31 °F - 20 °F 51% 30.17 in - ENE 8.9 mph - -  
9:00 PM 33.8 °F 26.5 °F 14.0 °F 44% 30.09 in - East 8.9 mph 20.1 mph N/A   Clear
9:30 PM 33.8 °F 26.5 °F 14.0 °F 44% 30.09 in - East 8.9 mph 20.1 mph N/A   Clear
10:00 PM 33.8 °F 26.5 °F 14.0 °F 44% 30.06 in - East 8.9 mph 20.1 mph N/A   Clear
10:30 PM 33.8 °F 27.9 °F 12.2 °F 41% 30.06 in - East 6.7 mph 17.9 mph N/A   Clear
11:00 PM 33.8 °F 27.9 °F 12.2 °F 41% 30.06 in - East 6.7 mph 17.9 mph N/A   Clear
11:30 PM 33.8 °F 27.9 °F 12.2 °F 41% 30.04 in - East 6.7 mph 17.9 mph N/A   Clear